2013 ITU World Triathlon Grand Final London : Sep 13 2013 : 35-39 Female AG Sprint : Results

Pos First Name Last Name Country Time Swim T1 Bike T2 Run
1 Trish Deykin GBR 01:12:46 00:11:17 00:03:11 00:37:21 00:03:06 00:17:53
2 Elizabeth Bullivant GBR 01:13:30 00:10:18 00:02:54 00:38:21 00:02:55 00:19:03
3 Suzanne Huelster USA 01:14:52 00:12:59 00:03:04 00:37:24 00:03:06 00:18:20
4 Melissa Belk USA 01:15:37 00:13:25 00:03:16 00:37:12 00:02:59 00:18:46
5 Luz Maria Fuentes De La PeÑa MEX 01:15:48 00:10:41 00:03:06 00:39:17 00:03:07 00:19:39
6 Kelly Weall GBR 01:16:09 00:12:32 00:03:09 00:38:08 00:03:02 00:19:19
7 Caroline Terburgh GBR 01:16:46 00:11:09 00:03:12 00:39:20 00:03:11 00:19:57
8 Hansen Karin SUI 01:17:02 00:12:55 00:03:17 00:38:09 00:03:01 00:19:43
9 Shannon Grady USA 01:17:03 00:12:57 00:02:54 00:39:37 00:03:19 00:18:18
10 Andrea Sharpe GBR 01:17:10 00:12:37 00:03:04 00:39:15 00:02:59 00:19:17
11 Heather Booth GBR 01:17:42 00:12:33 00:03:16 00:38:06 00:03:15 00:20:33
12 Louise Walker GBR 01:17:52 00:14:23 00:03:35 00:36:51 00:03:10 00:19:55
13 Joanna Zoppi GBR 01:17:53 00:13:46 00:03:28 00:38:20 00:03:12 00:19:09
14 Jenni Muston GBR 01:17:55 00:13:06 00:03:28 00:38:18 00:03:22 00:19:42
15 Rosie Guy GBR 01:18:16 00:13:18 00:03:17 00:38:20 00:03:05 00:20:17
16 Joanna Shallcross GBR 01:18:39 00:12:56 00:03:10 00:37:43 00:03:28 00:21:24
17 Veronica Oliveira De Menezes BRA 01:19:04 00:12:03 00:03:04 00:41:33 00:02:59 00:19:27
18 Amanda Yates CAN 01:19:06 00:13:14 00:03:57 00:39:24 00:03:02 00:19:30
19 Lydia Heilmann USA 01:19:08 00:13:19 00:03:03 00:38:37 00:03:03 00:21:08
20 Annica Goddard GBR 01:19:12 00:13:15 00:03:07 00:39:31 00:03:06 00:20:15
21 Alex Pettitt GBR 01:19:41 00:13:18 00:03:24 00:39:47 00:03:10 00:20:03
22 Sarah Rose GBR 01:19:47 00:13:17 00:02:58 00:39:10 00:03:14 00:21:09
23 Megan Davies GBR 01:19:55 00:11:15 00:03:44 00:38:25 00:03:57 00:22:34
24 Robyn Winn AUS 01:19:59 00:13:14 00:03:14 00:39:59 00:03:25 00:20:10
25 Claire Hawkins AUS 01:20:13 00:13:02 00:03:34 00:38:50 00:03:42 00:21:07
26 Kate Nunn GBR 01:20:16 00:13:32 00:03:31 00:40:05 00:03:18 00:19:54
27 Carolyn Hewett GBR 01:20:26 00:13:30 00:03:18 00:39:25 00:03:16 00:20:59
28 Kelsey Abbott USA 01:20:33 00:11:46 00:03:34 00:41:10 00:03:33 00:20:33
29 Sarah Kenny GBR 01:20:35 00:12:23 00:03:50 00:39:13 00:03:30 00:21:40
30 Emma Bexson GBR 01:21:11 00:13:07 00:03:43 00:38:33 00:03:25 00:22:26
31 Andrea Allocco GBR 01:21:17 00:13:31 00:03:07 00:40:46 00:03:55 00:20:00
32 Samantha Mcclary GBR 01:21:19 00:16:10 00:03:12 00:40:04 00:02:54 00:19:01
33 Suzanne Nottage NZL 01:21:38 00:13:24 00:03:51 00:40:36 00:03:12 00:20:37
34 Katie Fitzgerald Gill GBR 01:21:43 00:15:25 00:03:21 00:38:29 00:03:21 00:21:09
35 Astrid Cybulskis USA 01:21:45 00:11:45 00:03:27 00:40:30 00:03:48 00:22:17
36 Tine Fischer-nielsen DEN 01:21:51 00:13:26 00:03:34 00:39:24 00:03:44 00:21:46
37 Andri De Wit GBR 01:22:36 00:13:21 00:03:18 00:41:44 00:03:10 00:21:04
38 Lauren Weymouth USA 01:22:43 00:14:34 00:03:41 00:37:15 00:03:29 00:23:46
39 Hazel Scorer IRL 01:22:47 00:14:30 00:03:44 00:40:02 00:03:27 00:21:06
40 Alexandra Houghton GBR 01:22:52 00:11:15 00:03:31 00:39:14 00:03:31 00:25:23
41 Linda Mittestadt CAN 01:22:57 00:14:15 00:03:16 00:40:29 00:03:43 00:21:16
42 Maria Paola Attias Cevedo MEX 01:23:07 00:14:22 00:03:49 00:41:34 00:03:22 00:20:01
43 Jodi Kresowaty-harris CAN 01:23:27 00:13:09 00:03:59 00:40:37 00:03:24 00:22:20
44 Katrina Yerbury GBR 01:23:49 00:13:11 00:03:59 00:41:29 00:03:24 00:21:47
45 Christina Thorne AUS 01:24:04 00:13:35 00:03:46 00:41:47 00:03:28 00:21:30
46 Claire Lloyd GBR 01:24:10 00:13:48 00:03:54 00:40:42 00:03:40 00:22:07
47 Fiona Goor IRL 01:24:27 00:15:17 00:03:21 00:41:09 00:03:24 00:21:18
48 Paula Miotto BRA 01:25:03 00:14:40 00:03:51 00:42:53 00:03:39 00:20:03
49 Suzie Poirier CAN 01:25:29 00:15:32 00:03:47 00:40:55 00:03:32 00:21:45
50 Vicky Quintanilla USA 01:25:41 00:15:24 00:03:34 00:39:49 00:03:43 00:23:11
51 Diane Roux CAN 01:26:06 00:13:42 00:03:49 00:41:54 00:04:01 00:22:43
52 Karen Cambaliza CAN 01:26:09 00:14:44 00:03:47 00:42:34 00:03:25 00:21:40
53 Abigail Bliss USA 01:26:12 00:13:44 00:04:06 00:41:50 00:03:59 00:22:36
54 Yaeli Liebowitz AUS 01:26:13 00:15:11 00:03:45 00:41:13 00:03:26 00:22:39
55 Lindsay Dean USA 01:26:26 00:15:15 00:03:56 00:42:06 00:03:36 00:21:33
56 Deidre Derworiz CAN 01:26:37 00:13:58 00:03:54 00:42:43 00:03:46 00:22:19
57 Sara Dunbar USA 01:26:55 00:15:32 00:04:05 00:40:55 00:04:00 00:22:25
58 Robyn Low AUS 01:27:20 00:14:16 00:04:24 00:42:05 00:04:09 00:22:27
59 Hannah Ryan AUS 01:28:33 00:14:32 00:03:55 00:42:11 00:03:57 00:24:01
60 Hisako Yoshizawa JPN 01:28:35 00:13:14 00:03:55 00:45:41 00:04:14 00:21:32
61 Nikki Richards CAN 01:28:45 00:15:08 00:04:04 00:41:03 00:04:25 00:24:06
62 Gia Didonato-sroczenski USA 01:28:48 00:14:12 00:03:26 00:47:35 00:03:16 00:20:21
63 Anja Dewald GER 01:28:50 00:15:57 00:03:42 00:43:06 00:03:50 00:22:17
64 Rebekah Tolley USA 01:28:51 00:12:14 00:03:59 00:40:38 00:04:39 00:27:24
65 Amy Aken USA 01:29:09 00:16:02 00:04:13 00:45:20 00:03:45 00:19:50
66 Amy Deutsch USA 01:29:19 00:16:12 00:04:27 00:42:23 00:04:06 00:22:12
67 Kimberley Martin CAN 01:29:59 00:13:26 00:04:03 00:44:21 00:04:09 00:24:03
68 Alma Delia Lopez Marin MEX 01:31:00 00:17:33 00:03:49 00:44:20 00:03:44 00:21:36
69 Amy Moss-archambault CAN 01:31:08 00:15:21 00:04:07 00:42:32 00:04:00 00:25:10
70 Ana Laura Escamilla Escamilla MEX 01:31:23 00:17:57 00:04:08 00:42:21 00:05:37 00:21:23
71 Elizabeth Bassett USA 01:32:29 00:13:20 00:04:07 00:49:36 00:04:01 00:21:27
72 Bertha Angelica Pulido Martinez MEX 01:33:04 00:16:45 00:04:55 00:44:38 00:03:45 00:23:03
73 Paola Garcia Villar MEX 01:34:49 00:16:57 00:04:46 00:44:36 00:04:04 00:24:28
74 Jennifer Fox CAN 01:35:28 00:15:34 00:04:35 00:47:07 00:04:31 00:23:44
75 Kimberly Arbouw USA 01:36:25 00:16:57 00:05:54 00:43:34 00:04:26 00:25:35
76 Daniela Mariana Guzman Giraud MEX 01:36:43 00:17:29 00:04:33 00:44:58 00:04:11 00:25:35
77 Ana Soraia Gomes POR 01:37:20 00:17:53 00:04:14 00:48:07 00:03:57 00:23:10
78 Eileen Valentin PUR 01:37:27 00:15:30 00:04:43 00:49:21 00:04:18 00:23:37
79 Karin Stöckel GER 01:38:27 00:17:49 00:04:44 00:46:12 00:04:08 00:25:36
80 Tana Taylor CAN 01:38:47 00:15:41 00:04:55 00:47:44 00:04:53 00:25:37
81 Erica Bearss CAN 01:40:08 00:17:02 00:04:46 00:48:37 00:04:27 00:25:19
82 Gehan Abou Ameira EGY 01:44:34 00:17:50 00:04:55 00:48:06 00:05:36 00:28:09
83 Robyn Power AUS 01:50:11 00:23:03 00:08:39 00:46:44 00:05:07 00:26:40
84 Viola Hoff GER 01:50:26 00:17:05 00:05:37 00:49:33 00:05:36 00:32:37
DNF Melanie Thomas AUS 00:00:00 00:12:24 00:03:43 00:00:00 00:00:00 00:00:00
DNF Karla Freitas BRA 00:00:00 00:15:02 00:05:12 00:00:00 00:00:00 00:00:00
DSQ Gabriela Cabrera Sanchez MEX 00:00:00 00:00:00 00:00:00 00:00:00 00:00:00 00:00:00
DSQ Tania Gover AUS 00:00:00 00:00:00 00:00:00 00:00:00 00:00:00 00:00:00
DSQ Angela Marston CAN 00:00:00 00:00:00 00:00:00 00:00:00 00:00:00 00:00:00

Water Temperature 16.5 C